Preston, MN

7:37 PM CDT on October 18, 2019 (GMT -0500)
Preston

Weather History for KFKA - September, 2019

Change the Weather History Date:

Monday, September 16, 2019

  Actual Average (KRST) Record (KRST)
Temperature  
Mean Temperature 70 °F -  
Max Temperature 83 °F 68 °F 96 °F (1939)
Min Temperature 57 °F 47 °F 28 °F (1937)
Cooling Degree Days 4    
Growing Degree Days 20 (Base 50)    
Moisture  
Dew Point 62 °F    
Average Humidity 77    
Maximum Humidity 97    
Minimum Humidity 50    
Precipitation  
Precipitation 0.00 in - - ()
Sea Level Pressure  
Sea Level Pressure 30.09 in    
Wind  
Wind Speed 6 mph (SSE)    
Max Wind Speed 14 mph    
Max Gust Speed 21 mph    
Visibility 8 miles    
Events Fog    
Averages and records for this station are not official NWS values.
T = Trace of Precipitation, MM = Missing Value Source: NWS Daily Summary

Daily Weather History Graph

Daily Weather History Graph

Search for Another Location

Airport or City:

Astronomy

Sep. 16, 2019 Rise Set
Actual Time 6:48 AM CDT 7:17 PM CDT
Civil Twilight 6:20 AM CDT 7:46 PM CDT
Nautical Twilight 5:46 AM CDT 8:20 PM CDT
Astronomical Twilight 5:10 AM CDT 8:55 PM CDT
Moon 8:48 PM CDT (9/16) 8:59 AM CDT (9/16)
Length of Visible Light 13h 26m
Length of Day
12h 28m
Waning Gibbous, 94% of the Moon is Illuminated
Sep 16
Waning Gibbous
Sep 21
Last Quarter
Sep 28
New
Oct 5
First Quarter
Oct 13
Full

Hourly Weather History & Observations

Time (CDT) Temp. Heat Index Dew Point Humidity Pressure Visibility Wind Dir Wind Speed Gust Speed Precip Events Conditions
12:35 AM 62.4 °F - 59.2 °F 89% 30.07 in 10.0 mi South 5.8 mph - N/A   Clear
12:36 AM 62.6 °F - 59.2 °F 89% 30.07 in 10.0 mi South 5.8 mph - N/A   Clear
12:58 AM 62.1 °F - 60.1 °F 93% 30.07 in 10.0 mi South 4.6 mph - N/A   Clear
1:15 AM 61.7 °F - 58.8 °F 90% 30.07 in 10.0 mi SSE 5.8 mph - N/A   Clear
1:35 AM 61.9 °F - 58.6 °F 89% 30.08 in 10.0 mi South 4.6 mph - N/A   Clear
1:36 AM 61.9 °F - 58.6 °F 89% 30.08 in 10.0 mi South 4.6 mph - N/A   Clear
1:57 AM 61.9 °F - 59.0 °F 90% 30.08 in 10.0 mi SSE 4.6 mph - N/A   Clear
2:15 AM 62.6 °F - 59.7 °F 90% 30.08 in 10.0 mi SSE 3.5 mph - N/A   Clear
2:35 AM 61.9 °F - 59.0 °F 90% 30.08 in 10.0 mi South 3.5 mph - N/A   Clear
2:55 AM 61.9 °F - 59.5 °F 92% 30.08 in 10.0 mi South 4.6 mph - N/A   Clear
3:15 AM 61.3 °F - 59.0 °F 92% 30.09 in 10.0 mi SSW 5.8 mph - N/A   Clear
3:16 AM 61.3 °F - 58.8 °F 91% 30.08 in 10.0 mi SSW 5.8 mph - N/A   Clear
3:37 AM 60.1 °F - 58.3 °F 94% 30.09 in 10.0 mi South 5.8 mph - N/A   Clear
3:56 AM 61.0 °F - 59.2 °F 94% 30.09 in 10.0 mi South 5.8 mph - N/A   Clear
4:15 AM 61.7 °F - 59.9 °F 94% 30.09 in 7.0 mi South 5.8 mph - N/A   Clear
4:16 AM 61.7 °F - 59.9 °F 94% 30.09 in 7.0 mi South 5.8 mph - N/A   Clear
4:39 AM 59.9 °F - 58.3 °F 94% 30.09 in 1.2 mi SSE 4.6 mph - N/A   Mist
4:55 AM 59.5 °F - 58.1 °F 95% 30.09 in 0.2 mi South 4.6 mph - N/A Fog Fog
5:15 AM 59.9 °F - 58.5 °F 95% 30.10 in 0.2 mi South 3.5 mph - N/A Fog Fog
5:16 AM 59.7 °F - 58.5 °F 96% 30.10 in 0.2 mi South 3.5 mph - N/A Fog Fog
5:37 AM 58.3 °F - 57.0 °F 96% 30.10 in 0.2 mi Calm Calm - N/A Fog Fog
5:55 AM 57.7 °F - 56.5 °F 96% 30.10 in 0.2 mi SSE 3.5 mph - N/A Fog Fog
5:56 AM 57.6 °F - 56.3 °F 96% 30.10 in 0.2 mi SSE 4.6 mph - N/A Fog Fog
6:15 AM 57.9 °F - 57.0 °F 97% 30.11 in 0.5 mi South 4.6 mph - N/A Fog Fog
6:19 AM 58.1 °F - 57.2 °F 97% 30.11 in 0.2 mi SSE 4.6 mph - N/A Fog Fog
6:55 AM 58.1 °F - 57.0 °F 96% 30.12 in 0.2 mi South 3.5 mph - N/A Fog Fog
6:56 AM 58.1 °F - 56.8 °F 96% 30.12 in 0.2 mi South 3.5 mph - N/A Fog Fog
7:15 AM 58.5 °F - 57.4 °F 96% 30.12 in 0.8 mi South 4.6 mph - N/A   Mostly Cloudy
7:16 AM 58.5 °F - 57.4 °F 96% 30.12 in 1.0 mi South 4.6 mph - N/A   Mostly Cloudy
7:39 AM 59.5 °F - 58.5 °F 96% 30.13 in 3.0 mi SSE 3.5 mph - N/A   Clear
7:56 AM 61.3 °F - 60.3 °F 96% 30.13 in 5.0 mi SSE 4.6 mph - N/A   Clear
8:16 AM 62.6 °F - 61.3 °F 96% 30.14 in 7.0 mi SSE 4.6 mph - N/A   Clear
8:35 AM 63.5 °F - 62.2 °F 96% 30.13 in 10.0 mi SSE 4.6 mph - N/A   Clear
8:36 AM 63.5 °F - 62.4 °F 96% 30.13 in 7.0 mi SSE 5.8 mph - N/A   Clear
8:55 AM 64.4 °F - 63.5 °F 97% 30.13 in 7.0 mi SE 4.6 mph - N/A   Clear
9:16 AM 66.7 °F - 64.0 °F 91% 30.13 in 10.0 mi SE 4.6 mph - N/A   Clear
9:35 AM 69.1 °F - 64.9 °F 87% 30.13 in 10.0 mi SSE 4.6 mph - N/A   Clear
9:55 AM 71.6 °F - 65.7 °F 81% 30.13 in 10.0 mi SSE 6.9 mph - N/A   Clear
10:15 AM 73.8 °F - 62.8 °F 68% 30.13 in 10.0 mi SSE 9.2 mph 16.1 mph N/A   Clear
10:37 AM 74.8 °F - 63.7 °F 68% 30.13 in 10.0 mi South 8.1 mph - N/A   Clear
10:56 AM 75.7 °F - 61.9 °F 62% 30.12 in 10.0 mi South 10.4 mph - N/A   Clear
11:15 AM 76.5 °F - 62.2 °F 61% 30.12 in 10.0 mi SSE 10.4 mph - N/A   Clear
11:16 AM 76.5 °F - 62.1 °F 61% 30.12 in 10.0 mi SSE 11.5 mph - N/A   Clear
11:35 AM 77.9 °F - 64.0 °F 62% 30.12 in 10.0 mi South 9.2 mph - N/A   Clear
11:36 AM 78.1 °F - 63.9 °F 61% 30.12 in 10.0 mi South 9.2 mph - N/A   Clear
11:58 AM 79.0 °F - 62.8 °F 57% 30.11 in 10.0 mi South 13.8 mph - N/A   Clear
12:17 PM 79.9 °F - 60.6 °F 52% 30.11 in 7.0 mi South 13.8 mph 17.3 mph N/A   Clear
12:35 PM 80.6 °F 81.7 °F 61.9 °F 53% 30.11 in 10.0 mi South 10.4 mph - N/A   Clear
12:36 PM 80.6 °F 81.7 °F 62.1 °F 53% 30.11 in 10.0 mi South 10.4 mph - N/A   Clear
12:55 PM 80.6 °F 81.4 °F 60.4 °F 50% 30.11 in 10.0 mi SSE 11.5 mph - N/A   Clear
1:16 PM 81.5 °F 82.2 °F 61.3 °F 50% 30.10 in 10.0 mi South 11.5 mph - N/A   Clear
1:39 PM 81.5 °F 82.5 °F 62.4 °F 52% 30.09 in 10.0 mi South 10.4 mph 18.4 mph N/A   Clear
1:57 PM 80.1 °F 81.4 °F 62.8 °F 55% 30.09 in 10.0 mi SSE 12.7 mph - N/A   Clear
2:16 PM 81.0 °F 82.2 °F 62.8 °F 54% 30.09 in 10.0 mi SSE 8.1 mph - N/A   Clear
2:35 PM 80.1 °F 81.5 °F 63.0 °F 56% 30.08 in 10.0 mi SSE 9.2 mph - N/A   Clear
2:55 PM 81.5 °F 82.7 °F 62.8 °F 53% 30.08 in 10.0 mi SE 9.2 mph - N/A   Clear
2:59 PM 81.5 °F 82.7 °F 62.8 °F 53% 30.08 in 10.0 mi SSE 10.4 mph - N/A   Clear
3:17 PM 82.4 °F 83.9 °F 64.0 °F 54% 30.08 in 10.0 mi SSE 9.2 mph - N/A   Clear
3:36 PM 82.4 °F 83.5 °F 63.3 °F 52% 30.07 in 10.0 mi SSE 11.5 mph 20.7 mph N/A   Clear
3:55 PM 82.4 °F 84.2 °F 65.3 °F 56% 30.07 in 10.0 mi SSE 11.5 mph - N/A   Clear
3:56 PM 82.4 °F 84.2 °F 65.1 °F 56% 30.07 in 10.0 mi SSE 11.5 mph - N/A   Clear
4:15 PM 81.1 °F 83.1 °F 65.7 °F 59% 30.07 in 10.0 mi SSE 8.1 mph - N/A   Clear
4:16 PM 81.0 °F 83.0 °F 65.7 °F 60% 30.07 in 10.0 mi SSE 10.4 mph - N/A   Clear
4:38 PM 81.3 °F 83.2 °F 65.1 °F 58% 30.07 in 10.0 mi SSE 13.8 mph - N/A   Clear
4:57 PM 79.7 °F - 64.0 °F 59% 30.07 in 10.0 mi SSE 9.2 mph - N/A   Clear
5:16 PM 79.9 °F - 64.9 °F 60% 30.07 in 10.0 mi SSE 5.8 mph - N/A   Clear
5:35 PM 78.8 °F - 64.4 °F 61% 30.07 in 10.0 mi SSE 6.9 mph - N/A   Clear
5:36 PM 78.8 °F - 64.4 °F 61% 30.07 in 10.0 mi SE 6.9 mph - N/A   Clear
5:55 PM 77.9 °F - 64.4 °F 63% 30.07 in 10.0 mi SSE 6.9 mph - N/A   Clear
5:59 PM 77.9 °F - 64.4 °F 63% 30.07 in 10.0 mi SE 8.1 mph - N/A   Clear
6:16 PM 77.0 °F - 64.2 °F 65% 30.07 in 10.0 mi SSE 8.1 mph - N/A   Clear
6:35 PM 76.1 °F - 64.0 °F 66% 30.07 in 10.0 mi SE 8.1 mph - N/A   Clear
6:36 PM 76.1 °F - 64.0 °F 66% 30.07 in 10.0 mi SE 6.9 mph - N/A   Clear
6:55 PM 74.7 °F - 63.9 °F 69% 30.07 in 7.0 mi SSE 6.9 mph - N/A   Clear
6:56 PM 74.7 °F - 63.9 °F 69% 30.07 in 7.0 mi SSE 6.9 mph - N/A   Clear
7:19 PM 73.4 °F - 63.7 °F 71% 30.07 in 10.0 mi SSE 8.1 mph - N/A   Clear
7:37 PM 72.7 °F - 63.9 °F 74% 30.07 in 10.0 mi SSE 6.9 mph - N/A   Clear
7:56 PM 72.0 °F - 63.9 °F 76% 30.07 in 10.0 mi SSE 8.1 mph - N/A   Clear
8:15 PM 71.4 °F - 63.9 °F 77% 30.07 in 10.0 mi SSE 6.9 mph - N/A   Clear
8:16 PM 71.4 °F - 63.9 °F 77% 30.07 in 10.0 mi SSE 6.9 mph - N/A   Clear
8:38 PM 71.2 °F - 63.9 °F 77% 30.07 in 10.0 mi SSE 8.1 mph - N/A   Clear
8:57 PM 70.9 °F - 63.7 °F 78% 30.08 in 10.0 mi SSE 5.8 mph - N/A   Clear
9:15 PM 70.5 °F - 63.9 °F 79% 30.08 in 10.0 mi SSE 5.8 mph - N/A   Clear
9:16 PM 70.3 °F - 63.9 °F 80% 30.08 in 10.0 mi SSE 6.9 mph - N/A   Clear
9:39 PM 70.7 °F - 63.7 °F 78% 30.08 in 10.0 mi SSE 8.1 mph - N/A   Clear
9:57 PM 70.2 °F - 63.7 °F 80% 30.09 in 10.0 mi South 6.9 mph - N/A   Clear
10:15 PM 70.3 °F - 63.9 °F 80% 30.08 in 10.0 mi SSE 9.2 mph - N/A   Clear
10:16 PM 70.3 °F - 63.9 °F 80% 30.08 in 10.0 mi South 10.4 mph - N/A   Clear
10:35 PM 70.3 °F - 63.7 °F 79% 30.09 in 10.0 mi South 6.9 mph - N/A   Clear
10:39 PM 70.0 °F - 63.7 °F 80% 30.08 in 10.0 mi South 6.9 mph - N/A   Clear
10:55 PM 70.2 °F - 63.5 °F 79% 30.08 in 10.0 mi SSE 9.2 mph - N/A   Clear
11:15 PM 69.8 °F - 63.7 °F 81% 30.09 in 10.0 mi South 4.6 mph - N/A   Clear
11:37 PM 69.8 °F - 63.5 °F 80% 30.08 in 10.0 mi South 8.1 mph - N/A   Clear
11:55 PM 69.4 °F - 63.5 °F 81% 30.08 in 10.0 mi South 6.9 mph - N/A   Clear